www.pogodaiklimat.ru

Погода и климат >> Архив погоды >> Вьетнам >> Ханой


АРХИВ ПОГОДЫ в Ханое

Время (UTC), дата Ветер
(напр.,м/с)
 
Видим.   Явления Облачность Т
(С)
Тd
(С)
f
(%)
Тe
(С)
Тes
(С)
Комфортность P
(гПа)
Po
(гПа)
Тmin
(С)
Tmax
(С)
R
(мм)
R24
(мм)
S
(см)
06 10.07 СВ 2 20 км 8/8 300 м
[Cu Sc]
+29.2 +24.0 74 +41 +45 опасность
перегрева
1003.0 999.4 7
12 10.07 СЗ 1 20 км 10/10
[Cu Sc]
+28.5 +23.5 74 +39 +39 очень
душно
1002.6 999.0 +29.6 7
18 10.07 ЮВ 3 10 км слаб. дождь 9/9 300 м
[Cu Sc]
+26.6 +25.3 93 +39 +39 очень
душно
1003.9 1000.2 0.0
00 11.07 В 2 20 км {дождь} 9/9
[Cu Sc]
+26.6 +25.4 93 +39 +39 очень
душно
1005.2 1001.5 +26.0 0.0
06 11.07 СВ 3 20 км {дождь} 9/9 300 м
[Cu Sc]
+30.9 +26.0 75 +46 +48 опасность
перегрева
1004.2 1000.6 0.0
12 11.07 штиль 0 20 км 9/9
[Cu Sc]
+30.8 +27.5 83 +50 +50 опасность
перегрева
1003.6 1000.0 +31.6 0.0 0.0
18 11.07 штиль 0 20 км 10/10 300 м
[Cu Sc]
+29.0 +27.2 90 +46 +46 опасность
перегрева
1003.8 1000.2
00 12.07 штиль 0 20 км 8/8 300 м
[Cu Sc]
+28.8 +26.7 88 +45 +45 опасность
перегрева
1004.1 1000.5 +28.3
06 12.07 СЗ 2 20 км 9/9 300 м
[Cu Sc]
+34.2 +24.9 58 +47 +49 опасность
перегрева
1002.4 998.8
12 12.07 В 1 20 км 8/3 300 м
[Cu Sc Cs]
+32.4 +27.1 74 +51 +51 опасность
перегрева
1001.3 997.7 +34.7
18 12.07 ЮВ 2 20 км 3/3 1500 м
[Sc]
+29.7 +27.0 85 +47 +47 опасность
перегрева
1002.3 998.7
00 13.07 В 1 20 км 8/4 300 м
[Cu hum Cs]
+29.3 +27.7 91 +48 +50 опасность
перегрева
1002.2 998.6 +28.9
06 13.07 штиль 0 20 км 8/8 300 м
[Cu Sc]
+33.7 +26.9 68 +52 +57 опасность
перегрева
1001.1 997.5
12 13.07 штиль 0 20 км 8/5 300 м
[Cu hum Ci fib]
+33.0 +28.2 76 +54 +54 опасность
перегрева
999.9 996.4 +35.0
18 13.07 штиль 0 20 км 10/10 300 м
[Cu Sc]
+30.6 +27.8 85 +50 +50 опасность
перегрева
1000.4 996.8
00 14.07 СЗ 2 16 км слаб. дождь 10/10
[Cu Sc]
+29.1 +27.4 91 +47 +47 опасность
перегрева
1000.9 997.3 +29.0 0.0
06 14.07 СЗ 2 16 км слаб. дождь 10/8 300 м
[Frnb As op]
+27.0 +25.8 93 +40 +41 очень
душно
1001.0 997.4 5
12 14.07 штиль 0 10 км слаб. дождь 10/8 300 м
[Frnb As op]
+27.3 +26.6 96 +42 +42 опасность
перегрева
1000.7 997.1 +29.1 8
18 14.07 С 2 10 км {дождь} 9/9 300 м
[Cu Sc]
+26.6 +26.0 97 +40 +40 очень
душно
1001.5 997.8 0.2
00 15.07 штиль 0 16 км {дождь} 9/9
[Cu Sc]
+26.8 +26.1 96 +40 +41 очень
душно
1001.6 997.9 +26.1 0.7
06 15.07 ЮВ 2 20 км 9/9 300 м
[Cu Sc]
+32.7 +25.8 67 +48 +50 опасность
перегрева
1000.7 997.1 0.7
12 15.07 ЮВ 3 10 км гроза, ливневой дождь 10/10 300 м
[Cb cap]
+27.2 +24.3 84 +38 +38 очень
душно
1000.6 997.0 +33.1 0.0
18 15.07 штиль 0 10 км {гроза, дождь} 8/8 300 м
[Cu Sc]
+26.3 +25.4 95 +38 +38 очень
душно
1003.2 999.5 2
00 16.07 С 2 16 км 10/10
[Cb calv]
+26.4 +25.5 95 +39 +39 очень
душно
1003.4 999.7 +25.7 2
06 16.07 ЮВ 3 20 км {гроза} 5/5 300 м
[Cu med, cong]
+31.8 +26.8 75 +49 +58 опасность
перегрева
1002.8 999.2 2
12 16.07 В 1 20 км 3/0
[Ci fib]
+31.4 +25.9 73 +47 +47 опасность
перегрева
1000.6 997.0 +33.4 2
18 16.07 штиль 0 20 км 5/5 300 м
[Cu Sc]
+29.0 +27.6 92 +47 +47 опасность
перегрева
1002.5 998.9
00 17.07 ЮВ 2 20 км 6/6 300 м
[Cu Sc]
+28.7 +27.4 93 +46 +47 опасность
перегрева
1003.3 999.7 +28.0

 

Местоположение метеостанции Ханой (Вьетнам): широта 21.03 долгота 105.80 высота над уровнем моря 6 м.

В архиве по умолчанию представлена погода в Ханое за последнюю неделю. Архивные данные за месяц целиком и за предыдущие месяцы, начиная с января 2011 года, Вы можете получить, выбрав интересующий диапазон дат из раскрывающегося списка и нажав кнопку "Ввод!".


*Определитесь, кто Вы:
робот инопланетянин человек

Внимание! Время в таблицах - всемирное. Для получения местного времени необходимо прибавить поправку, которая равна 7 ч.

Смотрите также архив погоды в соседних городах и на ближайших метеорологических станциях:

Погода в Хайфоне (Вьетнам) (7 км)
Погода в Намдине (Вьетнам) (76 км)
Погода в Пхульене (Вьетнам) (90 км)
Погода в Баккане (Вьетнам) (125 км)
Погода в Лангсоне (Вьетнам) (133 км)
Погода в Тханьхоа (Вьетнам) (142 км)
Погода во Вьенгсае (Лаос) (177 км)
Погода в Лончжоу (Гуанси-Чжуанский автономный район, Китай) (178 км)
Погода в Каобанге (Вьетнам) (188 км)
Погода в Самныа (Лаос) (192 км)

Пояснения к столбцам:

Ветер - указаны скорость ветра в м/с - средняя за 10 мин, порывы в срок и между сроками (в фигурных скобках) и направление, откуда дует ветер: С - северный, СВ - северо-восточный, В - восточный, ЮВ - юго-восточный, Ю - южный, ЮЗ - юго-западный, З - западный, СЗ - северо-западный.
Видимость - горизонтальная дальность видимости в метрах или километрах. При видимости от 1 до 10 км при отсутствии осадков обычно наблюдается дымка, при ухудшении видимости до 1 км и менее - туман. В сухую погоду видимость может ухудшаться дымом, пылью или мглою.
Явления - указаны атмосферные явления, наблюдавшиеся в срок или в последний час перед сроком; фигурными скобками обозначены явления, наблюдавшиеся между сроками (за 1-3 часа до срока); квадратными скобками обозначены град или гололедные отложения с указанием их диаметра в мм.
Облачность - указаны через наклонную черту общая и нижняя облачность в баллах и высота нижней границы облаков в метрах; квадратными скобками обозначены формы облаков: Ci - перистые, Cs - перисто-слоистые, Cc - перисто-кучевые, Ac - высококучевые, As - высокослоистые, Sc - слоисто-кучевые, Ns - слоисто-дождевые, Cu - кучевые, Cb - кучево-дождевые. Подробнее классификацию облаков см. в Атласе облаков (PDF).
T - Температура воздуха - температура, измеренная на высоте 2 м над землей.
Td - Температура точки росы - температура, при понижении до которой содержащийся в воздухе водяной пар достигнет насыщения.
f - Относительная влажность воздуха - влажноcть воздуха, измеренная на высоте 2 м над землей.
Te - Эффективная температура - температура, которую ощущает одетый по сезону человек в тени. Характеристика душности погоды. При расчете учитывается влияние влажности воздуха и скорости ветра на теплоощущения человека.
Tes - Эффективная температура на солнце - температура, которую ощущает человек, с поправкой на солнечный нагрев. Характеристика знойности погоды. Зависит от высоты солнца над горизонтом, облачности и скорости ветра. Ночью, в пасмурную погоду, а также при ветре 12 м/с и более поправка равна нулю.
P - Атмосферное давление - приведенное к уровню моря атмосферное давление.
Po - Атмосферное давление - измеренное на уровне метеостанции атмосферное давление.
Tmin - Минимальная температура - минимум температуры воздуха на высоте 2 м над землей.
Tmax - Максимальная температура - максимум температуры воздуха на высоте 2 м над землей.
R - Количество осадков - Количество выпавших осадков за период времени, мм. При наведении курсора мыши на число - период времени, за который выпало указанное количество осадков.
R24 - Количество осадков - Количество выпавших осадков за 24 часа, мм.
S - Снежный покров - Высота снежного покрова, см. При наведении курсора мыши на число - состояние снежного покрова и степень покрытия местности в баллах.